TimeEST,TemperatureF,Dew PointF,Humidity,Sea Level PressureIn,VisibilityMPH,Wind Direction,Wind SpeedMPH,Gust SpeedMPH,PrecipitationIn,Events,Conditions,WindDirDegrees,DateUTC
12:53 AM,21.9,8.1,55,30.18,10.0,NNW,5.8,-,N/A,,Overcast,340,2013-01-24 05:53:00
1:53 AM,23.0,10.9,60,30.22,10.0,NW,19.6,28.8,N/A,,Overcast,310,2013-01-24 06:53:00
2:53 AM,21.0,7.0,55,30.28,10.0,NW,15.0,-,N/A,,Clear,320,2013-01-24 07:53:00
3:53 AM,19.9,9.0,62,30.34,10.0,NNW,15.0,25.3,N/A,,Mostly Cloudy,340,2013-01-24 08:53:00
4:53 AM,18.0,6.1,60,30.38,10.0,NNW,9.2,-,N/A,,Clear,330,2013-01-24 09:53:00
5:53 AM,16.0,5.0,62,30.41,10.0,NNW,8.1,-,N/A,,Clear,330,2013-01-24 10:53:00
6:53 AM,15.1,5.0,64,30.46,10.0,NNW,5.8,-,N/A,,Clear,330,2013-01-24 11:53:00
7:53 AM,15.1,5.0,64,30.51,10.0,NNW,6.9,-,N/A,,Clear,330,2013-01-24 12:53:00
8:53 AM,15.1,5.0,64,30.53,10.0,North,6.9,-,N/A,,Clear,350,2013-01-24 13:53:00
9:53 AM,18.0,5.0,57,30.59,10.0,NNE,8.1,-,N/A,,Clear,20,2013-01-24 14:53:00
10:53 AM,19.0,3.9,52,30.63,10.0,NNE,8.1,-,N/A,,Clear,20,2013-01-24 15:53:00
11:53 AM,21.0,1.9,44,30.64,10.0,NE,8.1,-,N/A,,Clear,50,2013-01-24 16:53:00
12:53 PM,23.0,-0.0,37,30.61,10.0,NE,8.1,-,N/A,,Clear,40,2013-01-24 17:53:00
1:53 PM,24.1,1.0,37,30.58,10.0,NE,9.2,-,N/A,,Clear,40,2013-01-24 18:53:00
2:53 PM,24.1,-0.0,35,30.57,10.0,Calm,Calm,-,N/A,,Clear,0,2013-01-24 19:53:00
3:53 PM,24.1,-0.9,34,30.57,10.0,Calm,Calm,-,N/A,,Clear,0,2013-01-24 20:53:00
4:53 PM,23.0,-0.0,37,30.57,10.0,Calm,Calm,-,N/A,,Clear,0,2013-01-24 21:53:00
5:53 PM,21.0,1.0,42,30.58,10.0,ENE,4.6,-,N/A,,Clear,60,2013-01-24 22:53:00
6:53 PM,19.0,1.9,47,30.58,10.0,ENE,5.8,-,N/A,,Clear,70,2013-01-24 23:53:00
7:53 PM,19.0,5.0,54,30.58,10.0,East,5.8,-,N/A,,Clear,100,2013-01-25 00:53:00
8:53 PM,19.9,7.0,57,30.54,10.0,East,9.2,-,N/A,,Clear,90,2013-01-25 01:53:00
9:53 PM,19.9,8.1,60,30.53,10.0,East,5.8,-,N/A,,Clear,100,2013-01-25 02:53:00
10:53 PM,19.9,7.0,57,30.53,10.0,SE,3.5,-,N/A,,Clear,130,2013-01-25 03:53:00
11:53 PM,19.9,7.0,57,30.49,10.0,ESE,8.1,-,N/A,,Clear,110,2013-01-25 04:53:00